Home > Weather > Charlottesville > Past weeks

Flag for USA Past Weather in Charlottesville, Virginia, USA — Yesterday and Last 2 Weeks

Now
79 °F

Sunny.


Feels Like: 82 °F
Forecast: 72 / 86 °F
Wind: 9 mph from South

Location: Charlottesville-Albemarle Airport

Current Time: Jul 30, 2016 at 6:43:03 PM

Latest Report: Jul 30, 2016 at 5:56 PM


Visibility: 10 mi

Pressure: 29.93 "Hg

Humidity: 77%

Dew Point: 71 °F

Location of CharlottesvilleLocation

Past Weather in Charlottesville — Graph

°F

Charlottesville Temperature Yesterday

Maximum temperature yesterday: 89 °F (at 4:53 PM)
Minimum temperature yesterday: 73 °F (at 5:53 AM)
Average temperature yesterday: 80 °F

High & Low Weather Summary for the Past Weeks

 TemperatureHumidityPressure
High99 °F (Jul 23, 4:53 PM)97% (Jul 17, 3:57 AM)30.20 "Hg (Jul 17, 3:57 AM)
Low66 °F (Jul 17, 5:53 AM)31% (Jul 20, 2:53 PM)29.76 "Hg (Jul 28, 5:53 PM)
Average82 °F68%30.01 "Hg
* Reported Jul 15 4:53 PM — Jul 30 4:53 PM, Charlottesville, Weather by CustomWeather, © 2016

Note: Actual official high and low records may vary slightly from our data, if they occured in-between our weather recording intervals... More about our weather records

Advertising

Charlottesville Weather History for the Previous 24 Hours

Scroll right to see more
 ConditionsComfort  
Time TempWeatherWind HumidityBarometerVisibility
4:53 PM
Sat, Jul 30
75 °FThunderstorms. Scattered clouds.10 mph90%29.89 "Hg10 mi
3:53 PM78 °FThunderstorms. Mostly cloudy.8 mph84%29.90 "Hg4 mi
2:53 PM84 °FStrong thunderstorms. Broken clouds.8 mph70%29.91 "Hg4 mi
1:53 PM89 °FBroken clouds.13 mph57%29.93 "Hg10 mi
12:53 PM88 °FScattered clouds.14 mph59%29.95 "Hg10 mi
12:02 PM87 °FBroken clouds.12 mph61%29.99 "Hg10 mi
11:53 AM86 °FPartly sunny.12 mph63%29.97 "Hg10 mi
10:53 AM84 °FScattered clouds.7 mph65%29.98 "Hg10 mi
9:53 AM80 °FScattered clouds.9 mph79%29.97 "Hg10 mi
8:53 AM77 °FMore clouds than sun.5 mph88%29.97 "Hg10 mi
7:53 AM75 °FPartly sunny.No wind90%29.96 "Hg8 mi
6:53 AM73 °FFog.No wind94%29.95 "Hg6 mi
5:53 AM74 °FPartly cloudy.No wind88%29.93 "Hg10 mi
4:53 AM73 °FPassing clouds.No wind90%29.92 "Hg10 mi
3:53 AM73 °FClear.No wind90%29.91 "Hg10 mi
2:53 AM74 °FPassing clouds.No wind88%29.92 "Hg10 mi
1:53 AM75 °FClear.3 mph85%29.94 "Hg10 mi
12:53 AM74 °FClear.No wind88%29.95 "Hg10 mi
11:53 PM
Fri, Jul 29
74 °FClear.No wind88%29.93 "Hg10 mi
10:53 PM76 °FClear.3 mph82%29.94 "Hg10 mi
9:53 PM76 °FClear.No wind80%29.93 "Hg10 mi
8:53 PM81 °FSunny.No wind67%29.91 "Hg10 mi
7:53 PM84 °FSunny.No wind59%29.90 "Hg10 mi
6:53 PM88 °FSunny.5 mph50%29.89 "Hg10 mi
Weather by CustomWeather, © 2016

See weather overviewHow to use our weather pages